Location: Greenwich
(51.4790°N, 0.0090°E)
Time: 14:17:07
(UTC+01:00)

Altair - Pass Details

Date: 17 June 2025
Orbit: 1502 x 1682 km, 47.2° (Epoch: 19 July)

Event Time Altitude Azimuth Distance (km) Brightness Sun altitude
Rises 22:54:20 0° 192° (SSW) 4,625 9.6 -10.1°
Reaches altitude 10° 22:58:11 10° 178° (S) 3,658 8.9 -10.4°
Maximum altitude 23:04:42 22° 132° (SE) 2,859 8.4 -10.9°
Drops below altitude 10° 23:11:19 10° 87° (E) 3,741 9.3 -11.3°
Sets 23:15:17 0° 73° (ENE) 4,758 10.0 -11.6°
